India Forums Logo

Afsar Bitiya

India Forums > Forum Index > Afsar Bitiya
Afsar Bitiya is a story of a girl who makes a mark in her life and becomes someone to reckon in the society only through sheer hard work and dedication towards studies.
<< | 1 | 2 | 3 | 4 | 5 | 6 | 7 | 8 | 9 | 10 | 11 | 12 | 13 | 14 | 15 | 16 | 17 | 18 | ... >>
TIDTopic SubjectStart DateLast Entry
2794168Idiot box to spread social mssg-AB2/18/2012 5:58:42 AM2/18/2012 2:30:58 PM
2794182Breaking the mold shiv and kinshuk2/18/2012 6:16:49 AM2/20/2012 12:47:42 AM
2794195my thoughts on krishna2/18/2012 6:35:20 AM2/18/2012 8:08:27 AM
2794559Rank and Chaskameter2/18/2012 1:28:30 PM2/19/2012 5:28:36 AM
2794651||Dabangg Pinto Singh - AT 4||note @ pg1272/18/2012 5:07:31 PM3/30/2012 4:02:02 PM
2794656Song Lyrics2/18/2012 5:16:50 PM2/18/2012 6:29:56 PM
2794798happy2/18/2012 11:13:51 PM2/19/2012 2:49:24 PM
2795022Which Episode U love d most in Last week ?2/19/2012 4:53:54 AM2/20/2012 12:12:16 AM
2795045Do you think AB can gain more Popularity?2/19/2012 5:32:09 AM2/24/2012 6:37:28 AM
2795429-//-Promotional Siggy Contest Winner-\\-2/19/2012 2:30:00 PM2/21/2012 2:12:37 PM
2795456Havnt Watched AB In Aaageesss2/19/2012 4:13:31 PM2/20/2012 3:51:27 AM
2795668Babloo fan2/20/2012 12:08:38 AM2/20/2012 7:23:30 AM
2795833AB isn't on Front Page of ZEE TV!2/20/2012 3:17:33 AM2/21/2012 12:52:57 PM
2796100A feel good episode today2/20/2012 7:09:39 AM2/21/2012 12:09:41 AM
2796125Pintu helps Krishna :))2/20/2012 7:24:58 AM2/21/2012 7:14:44 AM
2796141Prishna Aur Hankerchief :))2/20/2012 7:34:59 AM2/21/2012 12:22:25 PM
2796145Pintu - Pinky aur Wet Tissues :P2/20/2012 7:43:23 AM2/20/2012 8:22:01 AM
2796153Kab tak wait karo2/20/2012 7:48:41 AM2/21/2012 12:07:38 AM
279618420/2/12 - WU - Krishna Impresses the Interviewers!2/20/2012 8:05:53 AM2/20/2012 11:06:55 PM
2796269Krishna Interview2/20/2012 8:36:15 AM2/20/2012 9:22:36 AM
2796659Pinky As Priyanka2/20/2012 11:02:00 AM3/4/2012 1:23:35 AM
2796962SBS: Pinky of 'Afsar Bitiya' is in love with Pintu2/20/2012 4:50:16 PM2/21/2012 8:49:36 PM
2797085afsar bityia time change?2/20/2012 8:55:39 PM2/21/2012 12:14:48 AM
2797145Pintu's thoughts towards Krishna2/20/2012 10:21:00 PM2/20/2012 10:21:00 PM
2797275KAALI BILLI ON SET...2/21/2012 12:37:13 AM2/21/2012 2:01:06 PM
2797549TB: pinky to attempt suicide2/21/2012 3:55:32 AM2/21/2012 2:00:36 PM
2797694Plzzz Comment2/21/2012 6:20:13 AM2/21/2012 2:03:20 PM
2797784Prishna scene - BRILLIANT!2/21/2012 7:19:36 AM2/21/2012 2:02:52 PM
2797798Killing look2/21/2012 7:25:32 AM2/22/2012 8:47:51 PM
2797827Prishna have their official song!2/21/2012 7:42:09 AM2/22/2012 3:32:07 AM
279786721/2/12 - WU - Love Blooming between Pinto&Krishna2/21/2012 8:02:44 AM2/22/2012 2:05:57 PM
2797954Bihari: An endless tale of disgusting safari suits2/21/2012 8:40:08 AM3/2/2012 5:01:16 PM
2797991What will be DBPS reaction ???2/21/2012 8:56:25 AM2/21/2012 4:55:54 PM
2797997Cute Kinash and krishna scene :P2/21/2012 9:00:43 AM2/21/2012 2:07:03 PM
2798289Pinky Suicide Track2/21/2012 12:06:28 PM2/21/2012 5:01:12 PM
2798322Pinky Suicide2/21/2012 12:32:19 PM2/21/2012 10:36:59 PM
2798368Krishna and Pintu II2/21/2012 1:20:18 PM2/24/2012 4:35:42 AM
2798469Here's what might happen...2/21/2012 3:46:04 PM2/24/2012 8:19:02 AM
2798618Good performance "PINKY"...wht u think ?2/21/2012 8:47:48 PM2/22/2012 8:33:02 AM
2798703Koi to batoo pinki ko2/21/2012 10:35:33 PM2/22/2012 4:46:57 AM
2798947New Promo about Pinky.2/22/2012 1:15:59 AM2/22/2012 2:23:53 PM
279904822nd Feb Afser Bitya Eng SBB Segment WO/DL2/22/2012 2:55:44 AM2/22/2012 2:25:46 PM
2799104Looks like Pinky never passed the exam2/22/2012 3:40:51 AM2/25/2012 6:11:40 PM
2799182SBS - Tere Pyaar Ne Krdiya Deewana! Prishna&Pinky2/22/2012 4:53:07 AM2/22/2012 8:49:33 AM
2799330my opinion2/22/2012 7:06:34 AM2/23/2012 8:49:00 AM
2799346todays precap2/22/2012 7:13:25 AM2/22/2012 7:19:43 AM
2799369Another Excellent episode!2/22/2012 7:30:40 AM2/23/2012 3:28:38 AM
2799389Shivshakti had a crush on Kinshuk -TV9 seg -22 feb2/22/2012 7:47:06 AM2/22/2012 2:20:16 PM
279941422-2-12 WU - Pinky Attempts Suicide!2/22/2012 8:00:07 AM2/23/2012 6:13:39 AM
2799447Pintu's behaviour n nature2/22/2012 8:14:32 AM2/23/2012 5:17:13 AM
2799548Intzaar khatam hua2/22/2012 8:55:55 AM2/22/2012 9:15:16 AM
2799856Pinky's Ringtone - Which one next?2/22/2012 11:04:15 AM2/22/2012 12:38:39 PM
2800225DNA: TV actor Kinshuks Dubai visit2/22/2012 7:44:12 PM2/23/2012 2:55:32 PM
2800461TOI: Kinny's a devout hubby in real life2/23/2012 1:22:49 AM2/24/2012 12:44:20 AM
2800881pintuji dissapointed me2/23/2012 7:35:03 AM2/23/2012 8:29:33 AM
2800914Bihari is such shameless2/23/2012 7:58:29 AM2/24/2012 6:25:00 AM
2800920Two powerful words in today's episode!2/23/2012 8:05:23 AM2/23/2012 8:36:58 AM
2800947Pintu did exactly rght 2dy ,Kinshuk was MARVELLOUS2/23/2012 8:19:33 AM2/23/2012 9:21:34 AM
2800970Pintu-Pinky Chekha Tomm :((2/23/2012 8:31:08 AM2/24/2012 3:34:22 AM
2801100God Pinky N Krishna2/23/2012 9:42:53 AM2/24/2012 5:08:44 AM
2801111Pinky Marriage2/23/2012 9:45:50 AM2/24/2012 5:10:22 AM
2801259Antagonists and Protagonists2/23/2012 11:06:15 AM3/31/2012 10:32:13 PM
2801350||Dedicate a Song for Prishna ||2/23/2012 12:12:04 PM4/10/2012 8:19:11 AM
2801412WU Feb 23 - Cheka tomorrow affects Krishna ;)2/23/2012 1:16:03 PM2/24/2012 6:21:34 AM
280161923rd episode: I had tears in my eyes2/23/2012 8:36:11 PM2/24/2012 8:36:31 AM
280189824th Feb Afser Bitya SBB+SBS+IBN7 Segment WO/DL2/24/2012 3:09:28 AM2/28/2012 3:07:34 AM
2802119Left Behind!2/24/2012 7:10:31 AM2/26/2012 8:11:13 PM
2802125"Do Pal Ruka"Prishna! Video posted2/24/2012 7:16:20 AM2/25/2012 1:30:38 PM
2802131Do Pal ka Khawabon ka Kaarwaan..Prishna2/24/2012 7:20:07 AM2/24/2012 8:23:30 AM
2802157The Truth in His Eyes: 24/2 Episode Discussion2/24/2012 7:33:17 AM3/1/2012 12:49:46 PM
2802163song2/24/2012 7:41:07 AM2/24/2012 7:41:07 AM
2802170best dialoge2/24/2012 7:47:09 AM2/25/2012 10:25:51 AM
2802174Bhabhi too knows now2/24/2012 7:51:43 AM2/25/2012 9:52:09 AM
2802214Kinash...2/24/2012 8:19:32 AM2/24/2012 8:29:46 AM
2802229Ruthless n pathetic behaviour of TTS 2wds Pintu :(2/24/2012 8:25:50 AM2/24/2012 12:08:59 PM
<< | 1 | 2 | 3 | 4 | 5 | 6 | 7 | 8 | 9 | 10 | 11 | 12 | 13 | 14 | 15 | 16 | 17 | 18 | ... >>